Friday Harbor, WA
on Wednesday, January 16, 2013

Wednesday
Previous Day Next Day
Daily Summary
 ActualAverageRecord
Temperature
Mean Temperature °F / °C °F / °C  
Max Temperature 41°F / 5°C 44°F / 6°C 54°F / 12°C (2005)
Min Temperature 34°F / 1°C 36°F / 2°C 26°F / -3°C (2001)
Degree Days
Heating Degree Days 28    
Moisture
Dew Point 32°F / 0°C   
Average Humidity 81    
Maximum Humidity 89    
Minimum Humidity 70    
Precipitation
Precipitation 0.00 in / 0.00 cm in / cm in / cm ()
Wind
Wind Speed 1 mph / 2 km/h   
Max Wind Speed 5 mph / 8 km/h   
Max Gust Speed mph / km/h   
Visibility 10 miles / 16 kilometers   
Events     
Averages and records for this station are not official NWS values.
Key: T is trace of precipitation, MM is missing value
Source: NWS Daily Summary
Seasonal Weather Averages
Time(PST)TemperatureDew PointHumidity Pressure Visibility Wind DirectionWind SpeedGust SpeedPrecipitationEvents Conditions
12:53 AM 37.9°F / 3.3°C 33.1°F / 0.6°C 83% 30.69 in / 1039.3 hPa 10.0 miles / 16.1 kilometers Calm Calm - N/A   Overcast
1:53 AM 37.9°F / 3.3°C 33.1°F / 0.6°C 83% 30.70 in / 1039.6 hPa 10.0 miles / 16.1 kilometers Calm Calm - N/A   Overcast
2:53 AM 37.9°F / 3.3°C 33.1°F / 0.6°C 83% 30.70 in / 1039.6 hPa 10.0 miles / 16.1 kilometers Calm Calm - N/A   Overcast
3:53 AM 37.0°F / 2.8°C 34.0°F / 1.1°C 89% 30.69 in / 1039.3 hPa 10.0 miles / 16.1 kilometers Calm Calm - N/A   Overcast
4:53 AM 37.0°F / 2.8°C 33.1°F / 0.6°C 86% 30.68 in / 1038.8 hPa 10.0 miles / 16.1 kilometers Calm Calm - N/A   Overcast
5:53 AM 37.9°F / 3.3°C 33.1°F / 0.6°C 83% 30.66 in / 1038.1 hPa 10.0 miles / 16.1 kilometers Calm Calm - N/A   Overcast
6:53 AM 37.9°F / 3.3°C 32.0°F / 0.0°C 79% 30.65 in / 1037.7 hPa 10.0 miles / 16.1 kilometers Calm Calm - N/A   Overcast
7:53 AM 37.9°F / 3.3°C 33.1°F / 0.6°C 83% 30.66 in / 1038.1 hPa 10.0 miles / 16.1 kilometers Calm Calm - N/A   Overcast
8:53 AM 37.9°F / 3.3°C 32.0°F / 0.0°C 79% 30.66 in / 1038.3 hPa 10.0 miles / 16.1 kilometers Calm Calm - N/A   Overcast
9:53 AM 39.0°F / 3.9°C 32.0°F / 0.0°C 76% 30.66 in / 1038.1 hPa 10.0 miles / 16.1 kilometers NNE 3.5 mph / 5.6 km/h - N/A   Overcast
10:53 AM 39.9°F / 4.4°C 32.0°F / 0.0°C 73% 30.66 in / 1038.0 hPa 10.0 miles / 16.1 kilometers Calm Calm - N/A   Overcast
11:15 AM 39.2°F / 4.0°C 32.0°F / 0.0°C 75% 30.65 in / 1037.8 hPa 10.0 miles / 16.1 kilometers NNE 3.5 mph / 5.6 km/h - N/A   Scattered Clouds
11:53 AM 39.9°F / 4.4°C 30.9°F / -0.6°C 70% 30.65 in / 1037.7 hPa 10.0 miles / 16.1 kilometers North 3.5 mph / 5.6 km/h - N/A   Mostly Cloudy
12:04 PM 41.0°F / 5.0°C 32.0°F / 0.0°C 70% 30.64 in / 1037.5 hPa 10.0 miles / 16.1 kilometers North 3.5 mph / 5.6 km/h - N/A   Scattered Clouds
12:53 PM 41.0°F / 5.0°C 32.0°F / 0.0°C 70% 30.63 in / 1037.0 hPa - Variable 4.6 mph / 7.4 km/h - N/A   Clear
2:53 PM 39.9°F / 4.4°C 32.0°F / 0.0°C 73% 30.61 in / 1036.3 hPa 10.0 miles / 16.1 kilometers Variable 4.6 mph / 7.4 km/h - N/A   Clear
3:53 PM 39.0°F / 3.9°C 32.0°F / 0.0°C 76% 30.60 in / 1036.0 hPa 10.0 miles / 16.1 kilometers NNW 3.5 mph / 5.6 km/h - N/A   Clear
4:53 PM 37.0°F / 2.8°C 32.0°F / 0.0°C 82% 30.60 in / 1036.1 hPa 10.0 miles / 16.1 kilometers Variable 3.5 mph / 5.6 km/h - N/A   Clear
5:53 PM 35.1°F / 1.7°C 30.9°F / -0.6°C 85% 30.59 in / 1035.8 hPa 10.0 miles / 16.1 kilometers Calm Calm - N/A   Clear
6:53 PM 35.1°F / 1.7°C 30.9°F / -0.6°C 85% 30.58 in / 1035.4 hPa 10.0 miles / 16.1 kilometers Calm Calm - N/A   Clear
7:53 PM 34.0°F / 1.1°C 30.9°F / -0.6°C 89% 30.57 in / 1035.2 hPa 10.0 miles / 16.1 kilometers Calm Calm - N/A   Clear
8:53 PM 34.0°F / 1.1°C 30.9°F / -0.6°C 89% 30.56 in / 1034.8 hPa 10.0 miles / 16.1 kilometers Calm Calm - N/A   Clear
9:53 PM 36.0°F / 2.2°C 30.9°F / -0.6°C 82% 30.56 in / 1034.9 hPa 10.0 miles / 16.1 kilometers NW 4.6 mph / 7.4 km/h - N/A   Clear
10:53 PM 34.0°F / 1.1°C 30.0°F / -1.1°C 85% 30.55 in / 1034.5 hPa 10.0 miles / 16.1 kilometers Variable 3.5 mph / 5.6 km/h - N/A   Clear
11:53 PM 34.0°F / 1.1°C 30.0°F / -1.1°C 85% 30.55 in / 1034.4 hPa 10.0 miles / 16.1 kilometers Calm Calm - N/A   Clear
Moon Phase
Jan. 16 Jan. 18 Jan. 26 Feb. 03 Feb. 10
Sunrise:07:57 AM (PST) Moon Rise:10:05 AM (PST)1/16
Sunset:04:46 PM (PST) Moon Set:11:17 PM (PST)1/16

Copyright © 2014 The Weather Underground, Inc.